www.pogodaiklimat.ru

Погода и климат >> Архив погоды >> Мексика >> Soto La Marina


ПОГОДА в Soto La Marina

  • Прогноз погоды в Soto La Marina
  • Монитор погоды в Soto La Marina
  • Климат города

АРХИВ ПОГОДЫ в Soto La Marina

Время (UTC), дата Ветер
(напр.,м/с)
 
Видим.   Явления Облачность Т
(С)
Тd
(С)
f
(%)
Тe
(С)
Тes
(С)
Комфортность P
(гПа)
Po
(гПа)
Тmin
(С)
Tmax
(С)
R
(мм)
R24
(мм)
S
(см)
12 18.06 7000 м 10/0 2000 м
[Ac As]
+24.6 +23.8 95 1009.3 1006.9 +24.5 +38.9
15 18.06 Ю 1 10 км 10/0 2000 м
[As op]
+29.2 +24.2 74 +41 +43 опасность
перегрева
1010.2 1007.8
18 18.06 ЮВ 2 10 км 8/4 600 м
[Cu med, cong Ci]
+33.9 +23.1 53 +44 +55 опасность
перегрева
1010.2 1006.9 +24.5 +34.0
21 18.06 В 3 10 км 6/6 600 м
[Cu med, cong]
+37.8 +23.5 44 +48 +53 опасность
перегрева
1007.3 1004.9
00 19.06 В 2 10 км 10/0 2000 м
[As op]
+31.4 +23.8 64 +43 +43 опасность
перегрева
1008.1 1005.8 +24.6 +38.8
03 19.06 штиль 0 6000 м 1/1 600 м
[Cu med, cong]
+28.6 +24.8 80 +41 +41 опасность
перегрева
1009.7 1007.3
06 19.06 штиль 0 5000 м ясно +27.0 +25.0 89 +39 +39 очень
душно
1009.7 1007.3 +26.9 +38.8
09 19.06 штиль 0 5000 м ясно +26.1 +23.9 88 +36 +36 очень
душно
1008.0 1005.6
12 19.06 ЮЗ 1 7000 м 10/0 2000 м
[As op]
+24.9 +23.4 91 +33 +33 очень
душно
1008.4 1006.0 +24.8 +38.8
15 19.06 Ю 1 10 км 10/0 2000 м
[As op]
+28.6 +24.8 80 +41 +43 опасность
перегрева
1008.9 1006.5
18 19.06 ЮВ 2 10 км 9/3 600 м
[Cu med, cong As op]
+32.2 +23.3 59 +43 +47 опасность
перегрева
1008.5 1006.1 +24.8 +32.3
21 19.06 В 3 10 км 8/6 600 м
[Cu med, cong Ci]
+34.6 +23.2 52 +45 +50 опасность
перегрева
1006.0 1003.6
00 20.06 ЮВ 1 10 км 8/3 600 м
[Cu med, cong Ci ing]
+32.2 +24.1 62 +44 +45 опасность
перегрева
1006.5 1004.2 +24.8 +36.2
03 20.06 штиль 0 6000 м ясно +28.6 +24.5 79 +41 +41 опасность
перегрева
1008.2 1005.8
12 20.06 ЮВ 2 7000 м 10/0 2000 м
[As op]
+24.0 +23.2 95 +32 +32 очень
душно
1006.0 1003.6 +23.8 +36.2
15 20.06 В 2 10 км 10/0 2000 м
[As trans]
+29.7 +25.4 78 +44 +47 опасность
перегрева
1006.6 1004.2
18 20.06 ЮВ 5 10 км 8/0
[Cs]
+36.4 +22.0 43 +44 +54 опасность
перегрева
1006.5 1004.1 +23.8 +36.5
21 20.06 Ю 3 10 км 6/4 600 м
[Cu med, cong As op]
+36.4 +22.2 44 +45 +51 опасность
перегрева
1005.4 1003.0
00 21.06 штиль 0 10 км 9/1 600 м
[Cu med, cong Ac As]
+32.8 +21.4 51 +41 +41 опасность
перегрева
1005.8 1003.5 +23.8 +39.8
03 21.06 ЮВ 1 6000 м 4/0 2000 м
[Ac trans]
+29.9 +26.2 81 +46 +46 опасность
перегрева
1007.5 1005.2
12 21.06 В 3 7000 м 10/4 600 м
[Cu med, cong As op]
+26.7 +26.4 98 +41 +41 опасность
перегрева
1006.8 1004.4 +26.5 +39.8
15 21.06 ЮВ 2 10 км 10/1 600 м
[Cu med, cong As trans]
+29.7 +25.6 79 +44 +48 опасность
перегрева
1008.3 1005.9
00 22.06 ЮВ 2 9000 м дождь 6/6 300 м
[Cu med, cong]
+25.3 +24.8 97 +36 +36 очень
душно
1008.2 1005.8 8
03 22.06 В 1 10 км 8/8 600 м
[Cu med, cong]
+24.9 +24.9 100 +35 +35 очень
душно
1009.9 1007.5
12 22.06 СЗ 1 7000 м в посл. час морось 4/4 600 м
[Cu med, cong]
+24.1 +24.1 100 +33 +33 очень
душно
1011.5 1009.1 5
15 22.06 ЮВ 1 10 км 3/3 600 м
[Cu med, cong]
+29.2 +24.3 75 +41 +49 опасность
перегрева
1012.5 1010.1
18 22.06 В 1 7000 м мгла {туман} 6/6 600 м
[Cb cap]
+34.2 +25.3 60 +48 +59 опасность
перегрева
1011.9 1009.5 +23.9 +34.3
21 22.06 штиль 0 7000 м мгла {туман} 5/5 630 м
[Cu med, cong]
+35.6 +24.6 53 +48 +59 опасность
перегрева
1010.1 1007.7
00 23.06 В 2 9000 м мгла {туман} 4/4 300 м
[Cu med, cong]
+32.6 +23.6 59 +44 +45 опасность
перегрева
1009.1 1006.7 +23.9 +36.2
03 23.06 штиль 0 5000 м ясно +28.6 +25.7 84 +42 +42 опасность
перегрева
1010.5 1008.0
12 23.06 штиль 0 6000 м 3/0
[Cs]
+24.5 +24.5 100 +34 +34 очень
душно
1010.7 1008.3 +23.8 +36.2
15 23.06 штиль 0 10 км 4/0
[Cs]
+30.9 +23.2 64 +41 +54 опасность
перегрева
1010.8 1008.4
18 23.06 В 2 10 км ясно +37.3 +21.8 41 +45 +67 опасность
перегрева
1008.7 1006.3 +23.8 +37.4
21 23.06 ЮВ 3 10 км 1/1 600 м
[Cu med, cong]
+38.7 +23.5 42 +49 +61 опасность
перегрева
1006.3 1003.9
00 24.06 В 2 8000 м мгла {туман} ясно +33.2 +23.1 55 +43 +45 опасность
перегрева
1006.2 1003.9 +23.8 +39.5
03 24.06 В 3 5000 м 4/0 2000 м
[Ac trans]
+28.8 +24.2 76 +40 +40 очень
душно
1009.1 1006.8
06 24.06 ЮВ 3 5000 м ясно +27.3 +24.3 84 +38 +38 очень
душно
1010.4 1008.1 +27.3 +39.5
09 24.06 В 1 5000 м ясно +25.7 +23.5 88 +35 +35 очень
душно
1010.2 1007.8
12 24.06 ЮВ 1 7000 м 4/0 2000 м
[Ac trans]
+24.4 +22.3 88 +32 +32 очень
душно
1009.7 1007.3 +24.3 +39.5
15 24.06 ЮВ 2 10 км 3/0
[Cs]
+30.8 +22.1 60 +40 +49 очень
душно
1008.8 1006.4
18 24.06 В 2 10 км 8/0 2000 м
[Ac As]
+31.9 +23.2 60 +42 +52 опасность
перегрева
1009.5 1007.1 +24.3 +32.0
21 24.06 ЮВ 2 10 км 9/0 2000 м
[Ac As]
+31.9 +23.5 61 +43 +48 опасность
перегрева
1008.6 1006.2
00 25.06 ЮВ 3 10 км 9/0 2000 м
[Ac trans]
+31.4 +22.4 59 +41 +41 опасность
перегрева
1008.3 1005.9 +24.3 +34.0
03 25.06 штиль 0 6000 м 9/0 2000 м
[Ac As]
+28.0 +24.2 80 +39 +39 очень
душно
1009.9 1007.5
06 25.06 штиль 0 6000 м 9/0 2000 м
[Ac As]
+27.1 +24.5 86 +38 +38 очень
душно
1011.4 1009.0 +27.1 +34.0

 

Местоположение метеостанции Soto La Marina (Мексика): широта 23.77 долгота -98.20 высота над уровнем моря 21 м.

В архиве по умолчанию представлена погода в Soto La Marina за последнюю неделю. Архивные данные за месяц целиком и за предыдущие месяцы, начиная с января 2011 года, Вы можете получить, выбрав интересующий диапазон дат из раскрывающегося списка и нажав кнопку "Ввод!".


*Определитесь, кто Вы:
робот инопланетянин человек

Внимание! Время в таблицах - всемирное. Для получения местного времени необходимо прибавить поправку, которая в Soto La Marina равна -6 ч.

Смотрите также архив погоды в соседних городах и на ближайших метеорологических станциях:

Погода в Ciudad Victoria (Мексика) (95 км)
Погода в Tampico (Мексика) (178 км)
Погода в Tamuin (Мексика) (205 км)
Погода в Rio Verde (Мексика) (274 км)
Погода в Matlapa (Мексика) (280 км)
Погода в Monterrey (Мексика) (304 км)
Погода в Tuxpan (Мексика) (324 км)
Погода в San Luis Potosi (Мексика) (328 км)
Погода в Saltillo (Мексика) (334 км)
Погода в Pachuca (Мексика) (409 км)

Пояснения к столбцам:

Ветер - указаны скорость ветра в м/с - средняя за 10 мин, порывы в срок и между сроками (в фигурных скобках) и направление, откуда дует ветер: С - северный, СВ - северо-восточный, В - восточный, ЮВ - юго-восточный, Ю - южный, ЮЗ - юго-западный, З - западный, СЗ - северо-западный.
Видимость - горизонтальная дальность видимости в метрах или километрах. При видимости от 1 до 10 км при отсутствии осадков обычно наблюдается дымка, при ухудшении видимости до 1 км и менее - туман. В сухую погоду видимость может ухудшаться дымом, пылью или мглою.
Явления - указаны атмосферные явления, наблюдавшиеся в срок или в последний час перед сроком; фигурными скобками обозначены явления, наблюдавшиеся между сроками (за 1-3 часа до срока); квадратными скобками обозначены град или гололедные отложения с указанием их диаметра в мм.
Облачность - указаны через наклонную черту общая и нижняя облачность в баллах и высота нижней границы облаков в метрах; квадратными скобками обозначены формы облаков: Ci - перистые, Cs - перисто-слоистые, Cc - перисто-кучевые, Ac - высококучевые, As - высокослоистые, Sc - слоисто-кучевые, Ns - слоисто-дождевые, Cu - кучевые, Cb - кучево-дождевые. Подробнее классификацию облаков см. в Атласе облаков (PDF).
T - Температура воздуха - температура, измеренная на высоте 2 м над землей.
Td - Температура точки росы - температура, при понижении до которой содержащийся в воздухе водяной пар достигнет насыщения.
f - Относительная влажность воздуха - влажноcть воздуха, измеренная на высоте 2 м над землей.
Te - Эффективная температура - температура, которую ощущает одетый по сезону человек в тени. Характеристика душности погоды. При расчете учитывается влияние влажности воздуха и скорости ветра на теплоощущения человека.
Tes - Эффективная температура на солнце - температура, которую ощущает человек, с поправкой на солнечный нагрев. Характеристика знойности погоды. Зависит от высоты солнца над горизонтом, облачности и скорости ветра. Ночью, в пасмурную погоду, а также при ветре 12 м/с и более поправка равна нулю.
P - Атмосферное давление - приведенное к уровню моря атмосферное давление.
Po - Атмосферное давление - измеренное на уровне метеостанции атмосферное давление.
Tmin - Минимальная температура - минимум температуры воздуха на высоте 2 м над землей.
Tmax - Максимальная температура - максимум температуры воздуха на высоте 2 м над землей.
R - Количество осадков - Количество выпавших осадков за период времени, мм. При наведении курсора мыши на число - период времени, за который выпало указанное количество осадков.
R24 - Количество осадков - Количество выпавших осадков за 24 часа, мм.
S - Снежный покров - Высота снежного покрова, см. При наведении курсора мыши на число - состояние снежного покрова и степень покрытия местности в баллах.